Weather History for Doha, Qatar

Change the Weather History Date:

Wednesday, November 9, 2011

  Actual Average Record
Temperature  
Mean Temperature 72 °F -  
Max Temperature 78 °F 82 °F 95 °F (1999)
Min Temperature 66 °F 65 °F 66 °F (2011)
Cooling Degree Days 7    
Growing Degree Days 22 (Base 50)    
Moisture  
Dew Point 48 °F    
Average Humidity 44    
Maximum Humidity 56    
Minimum Humidity 18    
Precipitation  
Precipitation 0.00 in 0.01 in - ()
Sea Level Pressure  
Sea Level Pressure 30.04 in    
Wind  
Wind Speed 9 mph ()    
Max Wind Speed 15 mph    
Max Gust Speed 25 mph    
Visibility 6.8 miles    
Events      
Averages and records for this station are not official NWS values.
T = Trace of Precipitation, MM = Missing Value Source: Averaged Metar Reports

Daily Weather History Graph

Daily Weather History Graph

Search for Another Location

Airport:

Trip Planner

Search our weather history database for the weather conditions in past years. The results will help you decide how hot, cold, wet, or windy it might be!

Date:

Astronomy

Nov. 09, 2011 Rise Set
Actual Time 5:46 AM AST 4:48 PM AST
Civil Twilight 5:22 AM AST 5:12 PM AST
Nautical Twilight 4:54 AM AST 5:39 PM AST
Astronomical Twilight 4:27 AM AST 6:06 PM AST
Moon 3:46 PM AST (11/9) 4:22 AM AST (11/9)
Length of Visible Light 11h 50m
Length of Day
11h 02m
Waxing Gibbous, 98% of the Moon is Illuminated
Nov 9
Waxing Gibbous
Nov 10
Full
Nov 18
Last Quarter
Nov 25
New
Dec 2
First Quarter

Hourly Weather History & Observations

Time (AST) Temp. Dew Point Humidity Pressure Visibility Wind Dir Wind Speed Gust Speed Precip Events Conditions
12:00 AM 68.0 °F 48.2 °F 49% 30.04 in - WNW 5.8 mph - N/A   Clear
12:30 AM 68.0 °F 46.4 °F 46% 30.04 in - WNW 4.6 mph - N/A   Clear
1:00 AM 68.0 °F 46.4 °F 46% 30.04 in - West 5.8 mph - N/A   Clear
1:30 AM 68.0 °F 48.2 °F 49% 30.04 in - WNW 5.8 mph - N/A   Clear
2:00 AM 68.0 °F 48.2 °F 49% 30.04 in - WNW 6.9 mph - N/A   Clear
2:30 AM 68.0 °F 48.2 °F 49% 30.01 in - WNW 10.4 mph - N/A   Clear
3:00 AM 68 °F 47 °F 36% 30.03 in 10 mi NW 9.2 mph - -  
3:00 AM 68.0 °F 48.2 °F 49% 30.01 in 5.6 mi North - - N/A   Unknown
3:30 AM 68.0 °F 46.4 °F 46% 30.01 in - NW 10.4 mph - N/A   Clear
4:00 AM 68.0 °F 46.4 °F 46% 30.01 in - WNW 9.2 mph - N/A   Clear
4:30 AM 68.0 °F 48.2 °F 49% 30.01 in - WNW 9.2 mph - N/A   Clear
5:00 AM 66.2 °F 48.2 °F 52% 30.04 in - WNW 9.2 mph - N/A   Clear
5:30 AM 66.2 °F 48.2 °F 52% 30.04 in 6.2 mi WNW 5.8 mph - N/A   Partly Cloudy
6:00 AM 66.2 °F 50.0 °F 56% 30.04 in - WNW 4.6 mph - N/A   Clear
6:30 AM 68.0 °F 50.0 °F 52% 30.06 in - WNW 6.9 mph - N/A   Clear
7:00 AM - - N/A% 30.06 in - WNW 6.9 mph - N/A   Clear
7:30 AM 69.8 °F 50.0 °F 49% 30.06 in - WNW 8.1 mph - N/A   Clear
8:00 AM 71.6 °F 50.0 °F 46% 30.06 in - NW 9.2 mph - N/A   Clear
8:30 AM 71.6 °F 50.0 °F 46% 30.06 in - WNW 12.7 mph - N/A   Clear
9:00 AM 72 °F 49 °F 33% 30.09 in 7 mi NW 15.0 mph - -   Scattered Clouds
9:00 AM 71.6 °F 50.0 °F 46% - - NW 15.0 mph - N/A   Clear
9:30 AM 73.4 °F 50.0 °F 44% 30.06 in - NW 13.8 mph 25.3 mph N/A   Clear
10:00 AM 75.2 °F 51.8 °F 44% 30.06 in 6.2 mi NW 13.8 mph - N/A   Partly Cloudy
10:30 AM 75.2 °F 51.8 °F 44% 30.06 in - NW 13.8 mph - N/A   Clear
11:00 AM 77.0 °F 51.8 °F 41% 30.04 in 6.2 mi NW 15.0 mph - N/A   Partly Cloudy
11:30 AM 78.8 °F 50.0 °F 36% 30.04 in 6.2 mi NNW 15.0 mph - N/A   Partly Cloudy
12:00 PM 78.8 °F 50.0 °F 36% 30.04 in 6.2 mi NNW 15.0 mph - N/A   Partly Cloudy
12:30 PM 78.8 °F 48.2 °F 34% 30.04 in 6.2 mi NNW 15.0 mph - N/A   Partly Cloudy
1:00 PM 77.0 °F 41.0 °F 28% 30.01 in 6.2 mi NW 12.7 mph - N/A   Partly Cloudy
2:30 PM 77.0 °F 41.0 °F 28% 30.01 in 6.2 mi NW 12.7 mph - N/A   Partly Cloudy
3:00 PM 76 °F 40 °F 18% 30.01 in 10 mi NW 12.7 mph - -   Scattered Clouds
3:00 PM 77.0 °F 41.0 °F 28% 30.01 in 6.2 mi NW 12.7 mph - N/A   Unknown
3:30 PM 75.2 °F 39.2 °F 27% 30.01 in 6.2 mi NW 11.5 mph - N/A   Partly Cloudy
4:00 PM 75.2 °F 41.0 °F 29% 30.01 in 6.2 mi NW 11.5 mph - N/A   Partly Cloudy
4:30 PM 73.4 °F 44.6 °F 36% 30.01 in 6.2 mi NW 12.7 mph - N/A   Partly Cloudy
5:00 PM 73.4 °F 46.4 °F 38% 30.04 in 6.2 mi NNW 12.7 mph - N/A   Partly Cloudy
5:30 PM 71.6 °F 50.0 °F 46% 30.04 in - NW 10.4 mph - N/A   Partly Cloudy
6:00 PM 71.6 °F 51.8 °F 50% 30.04 in 6.2 mi NW 10.4 mph - N/A   Partly Cloudy
6:30 PM 71.6 °F 51.8 °F 50% 30.04 in - NW 10.4 mph - N/A   Clear
7:00 PM 71.6 °F 51.8 °F 50% 30.06 in - NW 11.5 mph - N/A   Clear
7:30 PM 69.8 °F 51.8 °F 53% 30.06 in - NW 9.2 mph - N/A   Clear
8:00 PM 69.8 °F 51.8 °F 53% 30.06 in - NW 9.2 mph - N/A   Clear
8:30 PM 69.8 °F 51.8 °F 53% 30.06 in - NW 6.9 mph - N/A   Clear
9:00 PM 71 °F 50 °F 36% 30.08 in 9 mi NW 8.1 mph - -  
9:00 PM 69.8 °F 50.0 °F 49% 30.06 in - NW 8.1 mph - N/A   Clear
9:30 PM 69.8 °F 50.0 °F 49% 30.06 in - NW 8.1 mph - N/A   Clear
10:00 PM 69.8 °F 50.0 °F 49% 30.06 in - NW 8.1 mph - N/A   Clear
10:30 PM 69.8 °F 50.0 °F 49% 30.06 in - NW 9.2 mph - N/A   Clear
11:00 PM 69.8 °F 50.0 °F 49% 30.06 in - NW 9.2 mph - N/A   Clear
11:30 PM 69.8 °F 50.0 °F 49% 30.04 in - NW 9.2 mph - N/A   Clear